Lid_Strength_Index
0 0 -0 1 0 0 1 1 1 1 1 1 1 1 1 1 1 1 1 1 1 1 1 1 2 1 2 3 2 2 2 3 4 3 2 0 1 1 0 -0 -0 0 1
1 1 -0 1 0 1 1 1 1 1 0 1 1 1 1 1 1 1 1 1 1 2 1 2 2 2 3 3 2 3 3 3 2 4 3 1 1 1 2 0 1 1 1
1 1 -0 1 1 1 1 1 1 1 1 0 1 1 1 1 1 1 1 1 1 1 2 2 3 3 3 3 3 3 3 1 2 2 3 2 2 2 1 0 0 0 0
1 1 1 1 1 0 1 0 1 0 1 1 1 1 1 1 1 1 1 1 1 1 1 2 2 2 2 2 3 3 1 2 2 2 2 2 2 1 1 2 2 1 1
1 1 1 1 0 0 1 1 0 1 1 1 1 1 1 1 1 1 1 1 1 1 1 1 2 2 2 2 1 1 1 2 2 2 3 3 3 3 3 2 2 2 1
1 1 1 1 1 1 1 1 1 1 1 1 1 1 1 4 8 5 1 1 1 1 1 1 2 4 4 5 4 4 2 2 2 3 3 3 3 2 2 2 2 3 4
1 1 1 1 1 1 1 1 1 1 1 1 1 1 2 3 8 7 5 1 1 2 2 2 2 2 3 3 5 4 4 5 4 1 3 3 3 2 2 2 2 3 3
1 1 1 1 1 1 1 1 1 1 1 1 1 1 1 4 7 7 4 1 1 1 1 1 1 1 1 1 1 1 1 1 1 1 1 2 3 3 1 1 2 2 1
2 1 1 1 1 1 1 2 1 1 1 1 1 1 1 2 8 8 3 1 1 1 1 1 1 1 7 7 1 2 1 2 6 7 8 8 9 10 8 2 2 3 4
1 1 1 1 1 1 1 1 1 1 1 1 1 1 2 1 8 9 6 1 2 1 1 4 7 3 8 7 1 2 2 2 3 5 5 7 9 6 9 5 5 6 6
1 1 1 1 1 1 1 1 1 1 1 1 1 1 1 1 2 8 8 1 1 1 1 2 5 8 9 9 7 2 4 4 4 3 3 2 1 2 3 4 3 5 6
1 1 1 1 1 1 1 1 1 1 2 2 2 2 1 1 3 9 9 8 7 1 3 2 5 10 10 10 7 9 9 6 3 4 3 2 2 2 2 1 1 3 3
1 1 1 1 1 1 1 2 2 1 2 2 2 2 2 1 1 7 9 9 7 1 2 5 10 10 10 10 10 10 9 4 3 3 2 2 1 2 4 3 3 3 3
1 1 1 1 1 1 1 1 2 2 2 2 2 2 2 1 1 2 4 5 8 4 6 7 8 7 7 5 7 9 5 3 3 2 2 2 4 4 6 5 6 5 6
2 2 2 1 1 2 1 1 1 1 1 2 2 1 2 2 1 3 3 2 1 2 1 2 2 2 2 2 2 1 2 2 2 1 2 4 5 5 6 6 6 7 8
2 2 2 2 2 2 2 2 8 6 7 8 8 3 1 3 8 7 7 7 7 7 3 2 2 2 2 2 2 2 2 3 3 4 6 6 7 7 7 7 8 8 9
2 2 2 2 2 2 2 2 2 4 9 9 8 8 5 5 8 8 8 8 9 8 2 2 2 2 2 2 3 4 6 5 6 6 6 7 7 8 9 8 8 8 9
1 6 1 1 2 2 2 2 2 2 2 2 8 6 9 10 10 10 10 8 5 5 1 2 2 2 2 2 4 6 6 6 7 7 7 7 8 8 8 9 9 9 9
2 2 1 1 1 2 1 1 1 2 2 2 3 6 10 11 11 11 10 2 2 2 2 1 1 1 4 5 5 5 6 7 6 7 7 7 8 9 9 9 9 12 10
1 5 3 1 1 2 1 2 2 2 2 2 2 4 6 6 5 4 4 3 2 1 1 1 2 4 5 5 6 6 7 7 7 7 8 8 8 8 9 9 8 8 7
1 2 5 1 2 2 2 2 2 2 3 3 3 3 9 5 4 4 4 4 3 1 1 2 4 5 5 5 5 7 6 7 8 8 8 8 8 9 8 8 7 6 7
1 1 2 2 2 2 2 2 2 2 2 3 3 6 12 5 4 4 3 3 1 1 3 5 5 5 5 6 6 7 8 8 9 8 8 8 8 9 8 7 7 7 7
1 1 2 2 2 4 2 2 2 2 2 2 3 6 6 5 4 3 2 2 4 4 4 5 6 7 7 7 8 8 9 9 9 8 9 9 8 9 8 8 6 7 7
1 2 2 2 2 2 2 2 2 5 2 2 3 5 5 2 2 5 6 5 5 5 6 7 8 8 9 9 9 9 9 9 8 8 8 8 8 8 6 6 7 7 7
1 1 2 2 2 2 2 2 2 2 2 2 2 3 2 4 5 5 5 6 6 8 9 9 9 9 9 10 10 12 14 14 12 13 8 7 7 6 6 8 8 7 7
1 1 2 2 2 2 2 2 2 2 2 2 2 2 4 5 5 5 7 9 10 10 10 10 9 10 10 10 11 15 15 15 14 14 9 6 7 8 8 9 8 8 8